Voltar ao catálogo

THOR ABLESTAR R/B

AtivoLEO
NORAD 447·ROCKET BODY·🇺🇸 United States

Lançado Oct 31, 1962 de Cape Canaveral Space Force Station

Loading…

Próximas Passagens (próximas 24 horas)

TLE

AtualizadoSource: Space-Track

Época: Sep 9, 2026, 07:29 UTC

1 00447U 62060B   26252.31247601 -.00000119  00000-0  16321-4 0  9999
2 00447  50.1284 214.3512 0065769  70.3286  76.0044 13.39177031123343

Acompanhe THOR ABLESTAR R/B em tempo real com AllMySat

Download on the App Store